User: anonymous   Login
Location: Unspecified
(40.9833°N, 0.0000°E)
Time: 07:26:19
(UTC+00:00)
Language:

AO-85 - Orbit

View from above orbital plane
View from above orbital plane
View from above satellite
View from above satellite

Ground track
Ground track

The orbit data is extracted from the following two-line orbital elements,

1 40967U 15058D   19198.32034542  .00000042  00000-0  23175-4 0 07464
2 40967 064.7784 071.4411 0197246 193.6886 165.8827 14.75962069111966
Epoch (UTC): 17 July 2019 07:41:17
Eccentricity: 0.0197246
inclination: 64.7784°
perigee height: 503 km
apogee height: 780 km
right ascension of ascending node: 71.4411°
argument of perigee: 193.6886°
revolutions per day: 14.75962069
mean anomaly at epoch: 165.8827°
orbit number at epoch: 11196

The dashed part of the orbit path shows where the satellite is in the earth's shadow,  

DLR